Time,TemperatureF,DewpointF,PressureIn,WindDirection,WindDirectionDegrees,WindSpeedMPH,WindSpeedGustMPH,Humidity,HourlyPrecipIn,Conditions,Clouds,dailyrainin,SoftwareType,DateUTC
2013-04-15 09:34:00,59.0,48.0,29.87,SSW,192,6.0,16.0,67,-99.99,,,-99.99,,2013-04-15 13:34:00,
2013-04-15 09:43:00,59.0,48.0,29.87,SSW,192,6.0,16.0,67,-99.99,,,-99.99,,2013-04-15 13:43:00,
2013-04-15 09:54:00,59.0,48.0,29.86,SSW,206,9.0,15.0,67,-99.99,,,-99.99,,2013-04-15 13:54:00,
2013-04-15 10:05:00,59.0,48.0,29.86,SSW,198,9.0,16.0,67,-99.99,,,-99.99,,2013-04-15 14:05:00,
2013-04-15 10:13:00,59.0,48.0,29.86,SSW,198,9.0,16.0,67,-99.99,,,-99.99,,2013-04-15 14:13:00,
2013-04-15 10:23:00,60.0,49.0,29.86,SSE,155,6.0,17.0,66,-99.99,,,-99.99,,2013-04-15 14:23:00,
2013-04-15 10:33:00,60.0,49.0,29.86,SSW,203,8.0,20.0,67,-99.99,,,-99.99,,2013-04-15 14:33:00,
2013-04-15 10:44:00,60.0,49.0,29.86,SSW,203,8.0,20.0,67,-99.99,,,-99.99,,2013-04-15 14:44:00,
2013-04-15 10:55:00,59.0,48.0,29.86,South,186,14.0,20.0,68,-99.99,,,-99.99,,2013-04-15 14:55:00,
2013-04-15 11:04:00,60.0,50.0,29.86,South,185,9.0,17.0,69,-99.99,,,-99.99,,2013-04-15 15:04:00,
2013-04-15 11:13:00,60.0,50.0,29.86,South,185,9.0,17.0,69,-99.99,,,-99.99,,2013-04-15 15:13:00,
2013-04-15 11:24:00,60.0,49.0,29.86,SSE,153,9.0,16.0,68,-99.99,,,-99.99,,2013-04-15 15:24:00,
2013-04-15 11:44:00,60.0,50.0,29.86,SSW,194,8.0,16.0,69,-99.99,,,-99.99,,2013-04-15 15:44:00,
2013-04-15 12:05:00,60.0,50.0,29.87,SSW,204,3.0,11.0,69,-99.99,,,-99.99,,2013-04-15 16:05:00,
2013-04-15 12:14:00,60.0,50.0,29.87,SSW,204,3.0,11.0,69,-99.99,,,-99.99,,2013-04-15 16:14:00,
2013-04-15 12:25:00,62.0,51.0,29.86,South,186,10.0,18.0,66,-99.99,,,-99.99,,2013-04-15 16:25:00,
2013-04-15 12:44:00,62.0,51.0,29.87,SSW,202,8.0,18.0,66,-99.99,,,-99.99,,2013-04-15 16:44:00,
2013-04-15 12:54:00,62.0,51.0,29.87,SSW,202,7.0,18.0,68,-99.99,,,-99.99,,2013-04-15 16:54:00,
2013-04-15 13:04:00,61.0,50.0,29.87,SSW,194,12.0,23.0,68,-99.99,,,-99.99,,2013-04-15 17:04:00,
2013-04-15 13:15:00,61.0,50.0,29.87,SSW,194,12.0,23.0,68,-99.99,,,-99.99,,2013-04-15 17:15:00,
2013-04-15 13:22:00,62.0,52.0,29.87,SW,214,13.0,22.0,69,-99.99,,,-99.99,,2013-04-15 17:22:00,
2013-04-15 13:33:00,62.0,51.0,29.85,South,180,13.0,25.0,68,-99.99,,,-99.99,,2013-04-15 17:33:00,
2013-04-15 13:43:00,62.0,51.0,29.85,South,180,13.0,25.0,68,-99.99,,,-99.99,,2013-04-15 17:43:00,
2013-04-15 13:53:00,63.0,52.0,29.85,SSW,204,9.0,19.0,68,-99.99,,,-99.99,,2013-04-15 17:53:00,
2013-04-15 14:03:00,63.0,52.0,29.85,SSW,209,8.0,22.0,67,-99.99,,,-99.99,,2013-04-15 18:03:00,
2013-04-15 14:13:00,63.0,52.0,29.85,SSW,209,8.0,22.0,67,-99.99,,,-99.99,,2013-04-15 18:13:00,
2013-04-15 14:24:00,63.0,53.0,29.86,SSW,196,11.0,23.0,69,-99.99,,,-99.99,,2013-04-15 18:24:00,
2013-04-15 14:33:00,63.0,53.0,29.86,South,180,9.0,18.0,69,-99.99,,,-99.99,,2013-04-15 18:33:00,
2013-04-15 14:42:00,63.0,53.0,29.86,South,180,9.0,18.0,69,-99.99,,,-99.99,,2013-04-15 18:42:00,
2013-04-15 14:52:00,64.0,53.0,29.85,South,184,7.0,17.0,68,-99.99,,,-99.99,,2013-04-15 18:52:00,
2013-04-15 15:02:00,64.0,53.0,29.84,SSW,212,9.0,17.0,67,-99.99,,,-99.99,,2013-04-15 19:02:00,
2013-04-15 15:12:00,64.0,53.0,29.84,SSW,212,9.0,17.0,67,-99.99,,,-99.99,,2013-04-15 19:12:00,
2013-04-15 15:22:00,64.0,53.0,29.84,SSW,210,7.0,19.0,67,-99.99,,,-99.99,,2013-04-15 19:22:00,
2013-04-15 15:38:00,64.0,53.0,29.83,SSW,194,10.0,19.0,67,-99.99,,,-99.99,,2013-04-15 19:38:00,
2013-04-15 15:55:00,64.0,53.0,29.83,SSW,194,10.0,19.0,67,-99.99,,,-99.99,,2013-04-15 19:55:00,
2013-04-15 16:02:00,65.0,53.0,29.83,South,176,8.0,18.0,65,-99.99,,,-99.99,,2013-04-15 20:02:00,
2013-04-15 16:12:00,67.0,53.0,29.81,South,187,11.0,20.0,61,-99.99,,,-99.99,,2013-04-15 20:12:00,
2013-04-15 16:22:00,66.0,53.0,29.82,SSW,198,7.0,16.0,64,-99.99,,,-99.99,,2013-04-15 20:22:00,
2013-04-15 16:32:00,65.0,53.0,29.81,SW,215,8.0,22.0,65,-99.99,,,-99.99,,2013-04-15 20:32:00,
2013-04-15 16:42:00,65.0,53.0,29.81,SW,215,8.0,22.0,65,-99.99,,,-99.99,,2013-04-15 20:42:00,
2013-04-15 16:52:00,64.0,52.0,29.82,South,188,8.0,22.0,66,-99.99,,,-99.99,,2013-04-15 20:52:00,
2013-04-15 17:02:00,65.0,53.0,29.83,SSW,192,8.0,22.0,66,-99.99,,,-99.99,,2013-04-15 21:02:00,
2013-04-15 17:12:00,65.0,53.0,29.83,SSW,192,8.0,22.0,66,-99.99,,,-99.99,,2013-04-15 21:12:00,
2013-04-15 17:22:00,64.0,53.0,29.83,South,190,6.0,20.0,68,-99.99,,,-99.99,,2013-04-15 21:22:00,
2013-04-15 17:33:00,64.0,53.0,29.82,South,175,7.0,15.0,68,-99.99,,,-99.99,,2013-04-15 21:33:00,
2013-04-15 17:43:00,64.0,53.0,29.82,South,175,7.0,15.0,68,-99.99,,,-99.99,,2013-04-15 21:43:00,
2013-04-15 17:53:00,65.0,54.0,29.80,SSE,161,8.0,15.0,68,-99.99,,,-99.99,,2013-04-15 21:53:00,
2013-04-15 18:02:00,65.0,54.0,29.80,SSW,208,7.0,21.0,67,-99.99,,,-99.99,,2013-04-15 22:02:00,
2013-04-15 18:13:00,65.0,54.0,29.80,SSW,208,7.0,21.0,67,-99.99,,,-99.99,,2013-04-15 22:13:00,
2013-04-15 18:23:00,64.0,53.0,29.81,ESE,116,12.0,17.0,68,-99.99,,,-99.99,,2013-04-15 22:23:00,
2013-04-15 18:33:00,64.0,54.0,29.82,SE,127,6.0,13.0,70,-99.99,,,-99.99,,2013-04-15 22:33:00,
2013-04-15 18:42:00,64.0,54.0,29.82,SE,127,6.0,13.0,70,-99.99,,,-99.99,,2013-04-15 22:42:00,
2013-04-15 18:52:00,64.0,54.0,29.80,South,173,5.0,10.0,69,-99.99,,,-99.99,,2013-04-15 22:52:00,
2013-04-15 19:02:00,64.0,54.0,29.81,SSW,204,3.0,15.0,70,-99.99,,,-99.99,,2013-04-15 23:02:00,
2013-04-15 19:12:00,64.0,54.0,29.81,SSW,204,3.0,15.0,70,-99.99,,,-99.99,,2013-04-15 23:12:00,
2013-04-15 19:22:00,65.0,55.0,29.83,South,191,4.0,10.0,69,-99.99,,,-99.99,,2013-04-15 23:22:00,
2013-04-15 19:32:00,64.0,54.0,29.83,SW,231,3.0,11.0,70,-99.99,,,-99.99,,2013-04-15 23:32:00,
2013-04-15 19:42:00,64.0,54.0,29.83,SW,231,3.0,11.0,70,-99.99,,,-99.99,,2013-04-15 23:42:00,
2013-04-15 19:52:00,64.0,54.0,29.83,SW,233,3.0,11.0,71,-99.99,,,-99.99,,2013-04-15 23:52:00,
2013-04-15 20:02:00,64.0,54.0,29.83,WSW,240,2.0,4.0,71,-99.99,,,-99.99,,2013-04-16 00:02:00,
2013-04-15 20:12:00,64.0,54.0,29.83,WSW,240,2.0,4.0,71,-99.99,,,-99.99,,2013-04-16 00:12:00,
2013-04-15 20:22:00,63.0,54.0,29.82,WSW,240,2.0,3.0,72,-99.99,,,-99.99,,2013-04-16 00:22:00,
2013-04-15 20:32:00,63.0,54.0,29.83,WSW,240,1.0,3.0,72,-99.99,,,-99.99,,2013-04-16 00:32:00,
2013-04-15 20:42:00,63.0,54.0,29.83,WSW,240,1.0,3.0,72,-99.99,,,-99.99,,2013-04-16 00:42:00,
2013-04-15 20:52:00,62.0,53.0,29.84,WSW,240,2.0,4.0,73,-99.99,,,-99.99,,2013-04-16 00:52:00,
2013-04-15 21:02:00,62.0,54.0,29.85,WSW,240,0.0,2.0,74,-99.99,,,-99.99,,2013-04-16 01:02:00,
2013-04-15 21:12:00,62.0,54.0,29.85,WSW,240,0.0,2.0,74,-99.99,,,-99.99,,2013-04-16 01:12:00,
2013-04-15 21:22:00,62.0,54.0,29.84,WSW,240,1.0,2.0,75,-99.99,,,-99.99,,2013-04-16 01:22:00,
2013-04-15 21:32:00,61.0,53.0,29.84,WSW,240,0.0,1.0,76,-99.99,,,-99.99,,2013-04-16 01:32:00,
2013-04-15 21:42:00,61.0,53.0,29.84,WSW,240,0.0,1.0,76,-99.99,,,-99.99,,2013-04-16 01:42:00,
2013-04-15 21:52:00,61.0,54.0,29.84,WSW,240,0.0,3.0,78,-99.99,,,-99.99,,2013-04-16 01:52:00,
2013-04-15 22:02:00,60.0,53.0,29.85,WSW,240,0.0,1.0,79,-99.99,,,-99.99,,2013-04-16 02:02:00,
2013-04-15 22:12:00,60.0,53.0,29.85,WSW,240,0.0,1.0,79,-99.99,,,-99.99,,2013-04-16 02:12:00,
2013-04-15 22:22:00,60.0,53.0,29.85,WSW,240,0.0,3.0,79,-99.99,,,-99.99,,2013-04-16 02:22:00,
2013-04-15 22:32:00,60.0,54.0,29.85,SE,144,4.0,5.0,81,-99.99,,,-99.99,,2013-04-16 02:32:00,
2013-04-15 22:42:00,60.0,54.0,29.85,SE,144,4.0,5.0,81,-99.99,,,-99.99,,2013-04-16 02:42:00,
2013-04-15 22:52:00,60.0,54.0,29.85,SE,125,4.0,8.0,82,-99.99,,,-99.99,,2013-04-16 02:52:00,
2013-04-15 23:02:00,60.0,54.0,29.84,SE,127,4.0,10.0,82,-99.99,,,-99.99,,2013-04-16 03:02:00,
2013-04-15 23:12:00,60.0,54.0,29.84,SE,127,4.0,10.0,82,-99.99,,,-99.99,,2013-04-16 03:12:00,
2013-04-15 23:22:00,60.0,55.0,29.85,SE,128,6.0,11.0,83,-99.99,,,-99.99,,2013-04-16 03:22:00,
2013-04-15 23:33:00,60.0,54.0,29.84,SE,128,5.0,10.0,82,-99.99,,,-99.99,,2013-04-16 03:33:00,
2013-04-15 23:43:00,60.0,54.0,29.84,SE,128,5.0,10.0,82,-99.99,,,-99.99,,2013-04-16 03:43:00,
2013-04-15 23:53:00,60.0,54.0,29.83,SE,132,2.0,9.0,82,-99.99,,,-99.99,,2013-04-16 03:53:00,